CanjetBLOCKVirtuelBLOCKQcBLOCKBLOCKBLOCKBLOCKBLOCKBLOCKBLOCKBLOCKBLOCKBLOCKBLOCKvolsBLOCKavecBLOCKFS-kACARS2020-07-04BLOCK01colon07pm

volsBLOCKBLOCKBLOCKBLOCKBLOCKpilotesBLOCKBLOCKBLOCKBLOCKBLOCKBLOCKBLOCKBLOCKtypeBLOCKBLOCKdepBLOCKBLOCKarrBLOCKBLOCKBLOCKBLOCKBLOCKaltBLOCKBLOCKBLOCKBLOCKBLOCKgsBLOCKBLOCKBLOCKBLOCKstatut

cja9999LouisBLOCKMB738KMEM-KMDW0ft0ktsarrived












BLOCKAppuyerBLOCKsurBLOCKF5BLOCKpourBLOCKactualiserBLOCKBLOCKBLOCKMiseBLOCKaBLOCKjourcolonBLOCK13colon07colon01pmCanjetBLOCKvirtuelBLOCKQC

Covid19

Publié par Michel Ayotte le 2020-05-11

Canjetvirtuel-Québec est fière des Anges Gardiens de la Santé ainsi que ceux des Services sociaux

 

Bravo à tous et merci 


Ça va bien aller!           

 

Vous trouverez votre place comme pilote chez nous!


Vols du mois Avril

Publié par Michel Ayotte le 2020-04-01

Canjetvirtuel-Québec est fière de ses 15 pilotes.

Ce mois-ci,(Avril) nous allons dépassé le record des vols depuis la fondation de la V.A. 

274 vols inscrits avec des profits de 8Millions

Bravo à tous et merci de faire partie de cette belle famille.

Ça va bien aller !           

 

Vous trouverez votre place comme pilote chez nous!


Microsoft flight sim 2020

Publié par Yvan Roy le 2019-06-25

 

Microsoft flight simulator 2020 encore plus fort sera disponible pour votre PC au début 2020 .

 

https://www.flightsimulator.com/
 

                                                   

 




                                                   

 




Bienvenue chez Canjetvirtuel-Q

Publié par Michel Ayotte le 2013-06-14

 

Canjetvirtuel-Québec est une compagnie aérienne virtuelle qui a été fondée par 2 passionnés de la simulation de vol.

Elle est opérée avec les Boeing 737. Exceptionnelement et pour votre plaisir les Boeing 747,757,767 et 777 sont autorisés pour des vols de plus de 1,5 heure.

Ces appareils pouvant faire des vols cargos ou des vols passagers,que ce soit au Canada, Europe, États-Unis, Mexique et Caraïbes.

Vous trouverez votre place comme pilote chez nous!



Avis

Aux fins de la simulation de vol seulement. CanjetVirtuel Québec n'est en aucun cas affilié avec n'importe quelle compagnie aérienne du monde réel. CanjetVirtuel Québec est un site à but non lucratif gérée par des amateurs de simulation de vol. Toutes les images sont la propriété exclusive de leurs propriétaires respectifs.
| propulsé par phpVMS, © 2013-2020.

Notice

For flight simulation purposes only. CanjetVirtuel Quebec is in no way affiliated with any real world airline. CanjetVirtuel Quebec is a non-profit site run by flight simulation enthusiasts. All images are the sole property of their respective owners.
| powered by phpVMS, © 2013-2020.

Affiliations

Vatsim

Les statistiques du site

Nombre de pilotes: 15
Total des vols effectués: 6377
Trajets disponibles: 574
Passagers transportés: 1729961
Total des heures de vol: 20848
Distance totale (NM): 8174825
Pilotes en ligne: 0

Nouvelles

Covid19
05/11/2020
Vols du mois Avril
04/01/2020
Microsoft flight sim 2020
06/25/2019
Bienvenue chez Canjetvirtuel-Q
06/14/2013

METAR

CYHZ 041600Z 17006KT 090V210 15SM BKN017 16/12 A2996 RMK SC7 SLP149 DENSITY ALT 700FT

CYQB 041600Z 29008G21KT 230V360 30SM FEW250 27/06 A2989 RMK CI2 SLP124 DENSITY ALT 1800FT

CYUL 041600Z 01005KT 300V030 30SM FEW070 28/07 A2993 RMK CF1 CF TR SLP136 DENSITY ALT 1600FT

CYYZ 041600Z 02010KT 330V070 15SM FEW250 30/11 A3001 RMK CI2 SLP160 DENSITY ALT 2300FT